SKYSAT-C5 (41772 NORAD) Tracking and Keplerian Element Data

This shows tracking and keplerian element data for the satellite.

Feedback or suggestion? Click here.




ElementValue
Catalog41772
NameSKYSAT-C5
Epoch Orbit27948
Epoch Day269.15945902
Epoch Year2021
RAAN334.6705
Inclination97.3035
Eccentricity0.0001973
Argument of Perigee89.3222
Mean Anonmoly270.8242
Mean Motion15.24766022
Decay Rate1.701E-05
L11 41772U 16058C 21269.15945902 .00001701 00000-0 71452-4 0 9998
L22 41772 97.3035 334.6705 0001973 89.3222 270.8242 15.24766022279484

Live tracking and technical data element details for SKYSAT-C5 (NORAD 41772). SKYSAT-C5 can be tracked NOW for your location showing map with azimuth and elevation plus other details from your city location.

Track the satellite on the map from your city or location and see movement details for azimuth, elevation, latitude, longitude, range, height, and movement on the map or in text.







IsCatalogInMostPopularTable: catalog: 41772, numindb: 533
Update: records affected: 1



GetName: 41772 SKYSAT-C5

Hit Count: updated at: Mon, 27 Sep 2021 00:27:18 GMT